Location: Lincolnton
(35.4660°N, 81.2500°W)
Time: 15:20:51
(UTC-04:00)

Hubble Space Telescope - Visible Passes

Search period start: 21 April 2018 00:00
Search period end: 01 May 2018 00:00
Orbit: 537 x 541 km, 28.5° (Epoch: 21 April)

Date Brightness Start Highest point End Pass type
(mag) Time Alt. Az. Time Alt. Az. Time Alt. Az.
24 Apr 3.1 21:38:27 10° SSW 21:39:00 12° S 21:39:00 12° S visible
25 Apr 2.5 21:27:38 10° SSW 21:29:53 17° S 21:29:53 17° S visible
26 Apr 2.2 21:16:57 10° SW 21:20:03 21° SSE 21:20:37 20° SSE visible
27 Apr 2.1 21:06:21 10° SW 21:09:39 23° SSE 21:11:13 19° SE visible
28 Apr 2.0 20:55:49 10° SW 20:59:16 26° S 21:01:42 15° ESE visible
28 Apr 3.3 22:36:24 10° WSW 22:37:04 14° WSW 22:37:04 14° WSW visible
29 Apr 1.9 20:45:20 10° SW 20:48:52 28° S 20:52:06 12° ESE visible
29 Apr 2.9 22:26:04 10° WSW 22:27:28 18° SW 22:27:28 18° SW visible
30 Apr 1.9 20:34:53 10° SW 20:38:30 29° S 20:42:07 10° ESE visible
30 Apr 2.5 22:15:46 10° WSW 22:17:47 21° SW 22:17:47 21° SW visible
